Regional Weather Roundup
Issued by NWS

Home | Current Version | Previous Version | Graphics & Text | Print | Product List | Glossary Off
Versions: 1 2 3 4 5 6 7 8 9 10 11 12 13 14 15 16 17 18 19 20 21 22 23 24 25 26 27 28 29 30 31 32 33 34 35 36 37 38 39 40 41 42 43 44 45 46 47 48 49 50

000
ASUS43 KMKX 260325
RWRWI

WISCONSIN REGIONAL WEATHER ROUNDUP
NATIONAL WEATHER SERVICE MILWAUKEE/SULLIVAN WI
1000 PM CDT SAT OCT 25 2014

NOTE: "FAIR" INDICATES FEW OR NO CLOUDS BELOW 12,000 FEET WITH NO
SIGNIFICANT WEATHER AND/OR OBSTRUCTIONS TO VISIBILITY.

WIZ001-002-006>008-014>016-023>028-260400-
NORTHWEST WISCONSIN

CITY           SKY/WX    TMP DP  RH WIND       PRES   REMARKS
SUPERIOR ARPT  CLEAR     46  27  48 W7        29.99S
ASHLAND        CLEAR     47  28  47 W9        29.97R
HAYWARD        CLEAR     48  24  39 NW3       30.00R
SIREN          CLEAR     40  26  59 W3        30.02S
CUMBERLAND     CLEAR     45  27  49 NW6       30.01S
RICE LAKE      CLEAR     46  25  42 W3        30.02S
CHETEK         CLEAR     47  28  48 CALM      30.01R
LADYSMITH      CLEAR     50  24  35 NW12      30.00S
EAU CLAIRE     CLEAR     48  26  42 NW7       30.00S
MENOMONIE      CLEAR     49  27  42 W7        30.02S
NEW RICHMOND   CLEAR     44  28  53 W7        30.04R
OSCEOLA        CLEAR     47  29  49 W7        30.06S
$$

WIZ003>005-009-010-017-018-260400-
NORTH CENTRAL WISCONSIN

CITY           SKY/WX    TMP DP  RH WIND       PRES   REMARKS
MANITOWISH WTR CLEAR     45  27  48 NW8       29.93S
ARBOR VITAE    CLEAR     49  27  41 NW7       29.93S
WOODRUFF       CLEAR     49  27  41 NW7       29.93S
RHINELANDER    CLEAR     47  23  38 NW9       29.93R
EAGLE RIVER    CLEAR     46  24  41 NW9       29.91S
LAND O LAKES   CLEAR     47  26  43 NW6       29.92S
PHILLIPS       CLEAR     47  25  42 NW7       29.96R
TOMAHAWK       CLEAR     43  22  43 CALM      29.95R
MEDFORD        CLEAR     45  25  44 NW7       29.96S
MERRILL        CLEAR     47  24  39 NW6       29.95R
$$

WIZ029-030-035-036-043>047-260400-
CENTRAL WISCONSIN

CITY           SKY/WX    TMP DP  RH WIND       PRES   REMARKS
WAUSAU         CLEAR     48  28  46 NW9       29.94R
MOSINEE        CLEAR     48  25  40 MISG      29.96R
MARSHFIELD     CLEAR     45  27  49 W8        29.97R
STEVENS POINT  CLEAR     49  25  38 W7        29.96S
WAUPACA        CLEAR     52  27  38 W6        29.95R
WAUTOMA        CLOUDY    47  29  50 W7        29.97S
WISC RAPIDS    CLEAR     48  27  44 W7        29.98R
CAMP DOUGLAS   NOT AVBL
$$

WIZ011>013-019>022-031-037>040-048>050-260400-
NORTHEAST WISCONSIN

CITY           SKY/WX    TMP DP  RH WIND       PRES   REMARKS
ANTIGO         CLEAR     46  25  43 NW9       29.93R
SHAWANO        CLEAR     49  27  43 W5        29.93R
OCONTO         CLEAR     53  24  33 NW7       29.89S
STURGEON BAY   CLEAR     54  27  35 NW10      29.89R
GREEN BAY      CLEAR     50  32  50 W9        29.91R
MANITOWOC      CLEAR     53  31  42 W13G20    29.90R
APPLETON       CLEAR     45  30  57 W7        29.94R
CLINTONVILLE   CLEAR     46  30  53 CALM      29.94R
OSHKOSH        CLEAR     51  30  44 W8        29.94R
$$

WIZ032>034-041-042-053>061-260400-
SOUTHWEST WISCONSIN

CITY           SKY/WX    TMP DP  RH WIND       PRES   REMARKS
LA CROSSE      CLEAR     47  37  68 N3        30.02R
SPARTA         CLEAR     38  30  72 CALM      30.02R
VIROQUA        CLEAR     49  28  43 W6        30.02R
BOSCOBEL       CLEAR     44  33  65 S3        30.02S HAZE
PRAIRIE DU CHI CLEAR     47  33  59 CALM      30.03R
PLATTEVILLE    CLEAR     48  32  53 W8        30.03S
$$

WIZ056-057-062-063-064-067-068-260400-
SOUTH CENTRAL WISCONSIN

CITY           SKY/WX    TMP DP  RH WIND       PRES   REMARKS
REEDSBURG      CLEAR     49  31  50 CALM      29.99S
BARABOO/DELLS  CLEAR     50  27  41 W5        29.99R
LONE ROCK      CLEAR     48  30  49 SW5       30.01R
MINERAL POINT  CLEAR     50  28  43 W5        30.01S
MADISON        CLEAR     53  27  36 W5        29.99R
MIDDLETON      CLEAR     49  28  43 NW3       30.00S
WATERTOWN      CLEAR     50  30  45 W6        29.96S
MONROE         CLEAR     52  30  43 W12       30.00S
JANESVILLE     CLEAR     46  30  53 NW6       29.98S
$$

WIZ051-052-058>065-066-070>072-260400-
SOUTHEAST WISCONSIN

CITY           SKY/WX    TMP DP  RH WIND       PRES   REMARKS
MILWAUKEE      FAIR      56  26  31 NW8       29.95R
WAUKESHA       CLEAR     48  30  49 W7        29.97S
MILWAUKEE/TIMM CLEAR     52  25  35 W8        29.96S
RACINE         CLEAR     54  29  38 W9        29.96S
BURLINGTON     CLEAR     47  29  49 NW6       29.97S
KENOSHA        CLEAR     52  29  41 W8        29.96R
FOND DU LAC    CLEAR     51  28  41 W12       29.95R
SHEBOYGAN      CLEAR     53  29  39 W9        29.93R
WEST BEND      CLEAR     52  27  37 W12G17    29.95S
JUNEAU         CLEAR     50  29  44 W8        29.97S
$$

LSZ147-162-260400-
LAKE SUPERIOR

STATION/POSITION TIME  TEMP    WIND        PRES    WAVE
                       AIR SEA DIR/SP/G            HT/PER
                 (UTC) (F)     (DEG/KT/KT) (MB)    (FT/S)
W MID LAKE BUOY  0250   49 46  270/ 14/ 17 1012.2R   4/ 5
DEVILS ISLAND    0300   52     280/ 18/ 20 1014.1R
PORT WING        0200   52     270/ 13/ 16 1014.9
SAXON HARBOR     0200   52     220/  4/  8 1013.9R
$$

LMZ867-665-643>646-260400-
LAKE MICHIGAN

STATION/POSITION TIME  TEMP    WIND        PRES    WAVE
                       AIR SEA DIR/SP/G            HT/PER
                 (UTC) (F)     (DEG/KT/KT) (MB)    (FT/S)
CHAMBERS ISLAND  0200   56     290/  7/ 13 1011.2R
N MID LAKE BUOY  0250   54 51  300/ 19/ 23 1009.7R   3/ 5
NORTHPORT PIER   0200   56     290/  9/ 17 1010.2S
SISTER BAY       0243          310/ 15/ 18   N/A
ALGOMA LAKESHORE 0141          310/  9/ 14   N/A
KEWAUNEE LAKESHO 0300   50     310/  7/  8 1011.2R
SHEBOYGAN LAKESH 0300   56 51  280/ 14/ 17 1013.3R
PORT WASHINGTON  0200   58     290/  7/ 13 1013.9S
ATWATER BUOY     0300   57     280/ 14/ 19 1014.9R
MILWAUKEE LAKESH 0300   57     290/ 10/ 13   N/A
S MID LAKE BUOY  0250   58 54  290/ 17/ 19 1013.3R   3/ 5
KENOSHA   LAKESH 0300   56     290/ 11/ 14 1014.2R
$$

TC  - TEMPERATURE IN CELSIUS
VSB - VISIBILITY IN STATUTE MILES
WCI - WIND CHILL INDEX
HX  - HEAT INDEX




USA.gov is the U.S. government's official web portal to all federal, state and local government web resources and services.